星链-31593 (STARLINK-31593 )

导读

STARLINK-31593是由美国于北京时间2024年3月31日发射的星链卫星,归属SpaceX星链互联网星座项目。星链星座旨在为全球提供覆盖偏远地区、高带宽的低轨卫星互联网服务,该卫星的发射延续了星链系统持续组网补网的部署节奏,进一步拓展星座覆盖规模与服务能力。

基本信息
目录编号:
59350
目录名称:
STARLINK-31593
国际标识:
2024-060C
轨道中心:
EARTH
卫星名称:
星链-31593
卫星全名:
星链-31593 (STARLINK-31593 )
卫星状态:
在轨 (已飞行887 天)
发射日期:
2024-03-31 UTC
国别 :
美国 (US)
星等 :
--
轨道信息
数据来源 国际轨道数据
星历时间: 2026-09-04T23:04:45+0800
6小时前
查看轨道信息
半长轴: 6861.173km
偏心率: 0.0001291
轨道倾角: 43.004°
近地点辐角 262.351°
升交点赤经 328.923°
平近点角 97.720°
近地点: 482.15km
远地点: 483.922km
周期: 94.266分钟
每日圈数: 15.275844
详细信息
固有亮度:
5
最大亮度:
0.3
卫星平台:
Starlink v2.0 mini
覆盖范围:
全球
运营商:
太空探索技术公司
运营商所在国:
美国
制造商(研发单位):
太空探索技术公司
制造商所在国:
美国
使用方式:
暂无
卫星简介
星链(Starlink)计划是由太空探索技术公司(SpaceX)提出的一个巨型低轨卫星互联网星座项目,计划在2019年至2024年间在太空搭建由约1.2万颗卫星组成的“星链”网络,其中1584颗将部署在地球上空550千米处的近地轨道,并从2020年开始工作。该卫星仍在工作。
2D轨道图
3D轨道图
轨道高度分析图
轨道倾角分析图
轨道综合分析图
查看轨道综合分析图
交会数据列表
事件ID 空间交会对象 最接近时刻(TCA) 交会距离 交会风险概率(CRP) 交会风险指数(CRI) 操作
CDM_260906-220005-935006-387521
2026-09-06T
22:00:26+0000
0.302 km
远距离
4.728563E-4 高风险 0.88
CDM_260906-233405-935006-387521
2026-09-06T
23:34:38+0000
0.844 km
远距离
4.321952E-5 中风险 0.68
CDM_260906-202605-935006-387521
2026-09-06T
20:26:13+0000
0.884 km
远距离
3.702983E-5 中风险 0.66
CDM_260907-050405-935006-387521
2026-09-07T
05:04:19+0000
2.099 km
极远距离
2.30841E-6 低风险 0.42
CDM_260906-153005-935005-956421
2026-09-06T
15:30:40+0000
2.950 km
极远距离
9.58101E-7 极低风险 0.35